Regional Weather Roundup
Issued by NWS Wakefield, VA

Home | Current Version | Previous Version | Graphics & Text | Print | Product List | Glossary On
Versions: 1 2 3 4 5 6 7 8 9 10 11 12 13 14 15 16 17 18 19 20 21 22 23 24 25 26 27 28
000
ASUS41 KAKQ 201113
RWRAKQ

REGIONAL WEATHER ROUNDUP
NATIONAL WEATHER SERVICE WAKEFIELD VA
600 AM EST MON NOV 20 2017

Note: "fair" indicates few or no clouds below 12,000 feet with no
significant weather and/or obstructions to visibility. * = Denotes
station may not report precipitation (e.g., rain,snow,etc.),
thunder or fog.

VAZ042-051-052>054-056-201200-
NORTHERN VIRGINIA

CITY           SKY/WX    TMP DP  RH WIND       PRES   REMARKS
WASH NATIONAL  PTCLDY    40  20  44 NW9       30.13R
DULLES         CLEAR     36  20  52 NW9       30.13R
FORT BELVOIR   CLEAR     38  19  46 W7        30.13R
QUANTICO       NOT AVBL
FREDERICKSBRG* CLEAR     31  27  86 CALM      30.14R
STAFFORD*      CLEAR     29  24  84 CALM      30.18R
WARRENTON      NOT AVBL
CULPEPER*      CLEAR     37  20  50 NW5       30.14R
MANASSAS*      CLEAR     34  21  59 NW5       30.14R
LEESBURG*      CLEAR     36  25  64 NW16G25   30.12R
WINCHESTER     CLEAR     32  19  59 W10G16    30.11R WCI  24
FRONT ROYAL*   SUNNY     34  21  60 W3        30.11R
LURAY*         SUNNY     32  23  69 S3        30.10R
$$

VAZ048-049-060>072-079>083-201200-
CENTRAL AND SOUTH CENTRAL VIRGINIA

CITY           SKY/WX    TMP DP  RH WIND       PRES   REMARKS
RICHMOND       CLEAR     34  25  69 CALM      30.14R
CHESTERFIELD*  NOT AVBL
PETERSBURG*    NOT AVBL
HANOVER        CLEAR     31  25  78 CALM      30.16R
TAPPAHANNOCK*    N/A    N/A N/A N/A MISG        N/A
QUINTON*       FAIR      31  27  86 CALM      30.14R
CHARLOTTSVILLE CLEAR     37  21  52 SW3       30.12R
GORDONSVILLE*  SUNNY     28  23  82 CALM      30.13R
ORANGE*        CLEAR     28  23  80 CALM      30.13R
LOUISA*          N/A     24  21  89 CALM        N/A
BUMPASS*       FAIR      30  21  70 SW3       30.13R
FARMVILLE*     CLEAR     28  28  99 CALM      30.14R
CREWE*         FAIR      33  24  71 W3        30.15R
FORT PICKETT*  NOT AVBL
CHASE CITY*    FAIR      31  26  81 CALM      30.16S
CLARKSVILLE*   FAIR      30  28  93 CALM      30.18R
SOUTH HILL*    CLEAR     29  26  88 CALM      30.23R
LAWRENCEVILLE* FAIR      32  24  73 CALM      30.17R
EMPORIA*       CLEAR     32  27  80 W3        30.19R
$$

VAZ088>098-201200-
SOUTHEAST VIRGINIA

CITY           SKY/WX    TMP DP  RH WIND       PRES   REMARKS
NORFOLK        CLEAR     41  31  67 VRB3      30.13R
VIRGINIA BEACH CLEAR     34  26  72 SW6       30.13R
NORFOLK NAVAL  CLEAR     42  30  62 W9        30.15R
WEST POINT*    CLEAR     26  23  87 CALM      30.16R
SALUDA*        FAIR      35  28  74 W3        30.14R
NEWPORT NEWS   PTCLDY    37  29  72 W3        30.14R
LANGLEY AFB    PTCLDY    36  28  73 W6        30.14R
FORT EUSTIS    PTCLDY    37  29  71 W6        30.12R
WILLIAMSBURG*  PTCLDY    36  28  75 CALM      30.16R
HR EXEC AP*    NOT AVBL
FRANKLIN*      CLEAR     30  26  84 CALM      30.16R
US460-WAKEFLD  CLEAR     32  26  78 CALM      30.16R
$$

VAZ020-022-025-037-045-201200-
WEST CENTRAL AND SOUTHWEST VIRGINIA

CITY           SKY/WX    TMP DP  RH WIND       PRES   REMARKS
STAUNTON*      CLEAR     21  17  86 CALM      30.12R
WAYNESBORO*    SUNNY     30  21  69 SW6       30.10R
HOT SPRINGS VA CLEAR     23  17  76 W20       30.00R WCI   8
LYNCHBURG      CLEAR     31  21  66 W3        30.14R
DANVILLE       CLEAR     29  25  85 SW6       30.18R
SOUTH BOSTON*  FAIR      28  26  94 CALM      30.18R
MARTINSVILLE   CLEAR     26  22  88 CALM      30.20R
ROANOKE        CLEAR     33  22  63 W8        30.17R
BLACKSBURG     CLEAR     30  22  72 W8        30.16R
DUBLIN*        CLEAR     30  23  75 W7        30.16R
MARION*        PTCLDY    28  23  82 W13       30.16S WCI  17
HILLSVILLE*    CLEAR     27  22  80 W13       30.10R WCI  16
RICHLANDS*     FAIR      27  23  85 W5        30.16S
WISE*          CLEAR     25  25 100 SW5       30.17R
ABINGDON*      CLEAR     28  26  94 W5        30.19S
$$

MDZ021>025-VAZ099-100-201200-
SOUTHERN MARYLAND AND THE DELMARVA PENINSULA

CITY           SKY/WX    TMP DP  RH WIND       PRES   REMARKS
PATUXENT RIVER NOT AVBL
BAY BRIDGE APT PTCLDY    39  25  56 NW15      30.11R
LEONARDTOWN    CLEAR     37  21  52 W6        30.14R
DOVER          CLEAR     38  26  62 W14G22    30.08R
GEORGETOWN     CLEAR     40  23  50 NW5       30.10R
EASTON         MOCLDY    41  23  48 NW13      30.14R
CAMBRIDGE      CLOUDY    41  25  52 W12       30.11R
SALISBURY      PTCLDY    37  27  67 W5        30.10R
OCEAN CITY     CLEAR     38  25  59 NW5       30.11R
WALLOPS ISLAND CLEAR     38  28  67 NW6       30.11R
ACCOMACK*      CLEAR     41  32  70 NW8       30.12R
$$

NCZ012>017-030>032-201200-
NORTH CENTRAL AND EASTERN NORTH CAROLINA

CITY           SKY/WX    TMP DP  RH WIND       PRES   REMARKS
ROANOKE RAPIDS FAIR      32  28  86 W3        30.17R
RALEIGH        PTCLDY    28  26  92 CALM      30.19R
ELIZABETH CITY PTCLDY    35  29  78 W8        30.15R
AHOSKIE*       CLEAR     31  28  87 CALM      30.17R
EDENTON*       PTCLDY    39  32  75 CALM      30.15R
CURRITUCK*     PTCLDY    35  30  81 W3        30.15R
KILL DEVIL HLS PTCLDY    42  30  62 NW5       30.12R
MANTEO         PTCLDY    44  31  61 NW9       30.14R
CAPE HATTERAS  CLEAR     46  34  62 NW9G16    30.14R
TARBORO*       NOT AVBL
GOLDSBORO      CLEAR     39  27  62 NW7       30.17R
WASHINGTON     CLEAR     35  28  73 CALM      30.17R
GREENVILLE     CLEAR     34  28  80 CALM      30.18R
NEW BERN       CLEAR     34  29  82 W6        30.19R
WILMINGTON     CLEAR     34  31  88 CALM      30.19R
$$

VAZ048-201200-
ELSEWHERE

CITY           SKY/WX    TMP DP  RH WIND       PRES   REMARKS
HARRISBURG PA  PTCLDY    36  23  59 W14       30.05R
BALTIMORE      PTCLDY    37  23  56 W8        30.09R
ANNAPOLIS      NOT AVBL
ANDREWS AFB    CLEAR     38  19  46 NW15      30.10R
PHILADELPHIA   PTCLDY    38  23  55 W15       30.05R
GREENSBORO     CLEAR     33  24  69 W9        30.17R
ROCKY MOUNT    CLEAR     34  28  79 W3        30.19R
$$

VAZ100-201200-
MARINE

STATION/POSITION TIME  TEMP    WIND        PRES    WAVE   SWELL
                       AIR SEA DIR/SP/G            HT/PER HT/PER
                 (UTC) (F)     (DEG/KT/KT) (MB)    (FT/S) (FT/S)
BRANDYWINE LGT   1042   42     310/ 24/ 34 1018.7R
CAPE MAY NJ      1048   41 47  320/ 15/ 26 1017.9R
LEWES DE         1042   42 51  300/ 20/ 24 1018.6R
15NM E FENWICK I 1050   45 59  290/ 23/ 29 1018.3R   6/ 5
OCEAN-CITY-INLET 1042   41 49  330/  6/  9 1019.4R
WACHAPREAGUE VA  1042   40 50   CALM  /  3 1019.6R
THOMAS POINT MD  1100   41 53  310/ 10/ 11   N/A
GOOSES REEF MD   1050   42     320/ 12/ 16 1019.7R
COVE POINT MD    1042   41     320/ 10/ 15 1020.5R
SOLOMONS ISLAND  1042   42 54  320/ 13/ 19 1019.7R
BISHOPS HEAD MD  1042   42 46  320/ 16/ 20 1019.9R
PINEY POINT MD   1042          360/ 15/ 17   N/A
POTOMAC MD       1050   44     320/ 16/ 19 1019.6R
CAMBRIDGE MD     1042   42 50              1020.1R
LEWISETTA VA     1042   38 52  290/  7/  8 1020.2R
RAPPAHANNOCK LGT 1042          300/ 19/ 21 1020.3R
STINGRAY PT      1050   43     310/ 12/ 16 1020.4R
YORK RVR RNG VA  1042   42     310/ 14/ 16 1020.8R
YORKTOWN VA      1042   40 54  290/  9/ 12 1020.2R
JAMESTOWN VA     1050          300/  8/ 12   N/A
DOMINION TERM VA 1042   42     300/ 13/ 15 1020.6R
KIPTOPEKE VA     1042      53  310/ 18/ 23   N/A
CAPE HENRY VA    1042   44     270/ 10/ 15   N/A
WILLOUBY STN VA  1042   42     300/ 15/ 16 1020.3R
S CRANEY ISL VA  1042   40     290/  8/ 12 1020.3R
CAPE HENRY BUOY  1100      60                N/A     3/ 4
1ST LANDING BUOY 1050   44     320/ 17/ 21 1020.2R
CAPE CHARLES BUO 1051      58                N/A     3/ 4
64NM E OF VA BCH 1050   51 60  300/ 14/ 19 1019.1R   7/ 8   5/ 8
DUCK PIER NC     1042   43 60  310/ 15/ 18 1019.6R
44100 DUCK FRF   1045      61                N/A     5/ 6
44056 DUCK FRF   1100      61                N/A     4/ 6
OREGON INLET NC  1042   45 56  320/  8/ 11 1020.2R
HATTERAS NC      1042   47 59  330/ 18/ 20 1020.1R
DIAMOND SHLS NC  1050   50 66  330/ 17/ 21 1020.2R   5/ 4   2/12
CAPE LOOKOUT NC  1100          330/ 13/ 15 1021.7R
$$




USA.gov is the U.S. government's official web portal to all federal, state and local government web resources and services.